Weather observations for the past three days for
L O Simenstad Municipal Airport
Imperial (Metric)
Date Time (cdt) Wind (mph) Vis. (mi.) Weather Sky Cond. Temperature (ºF) Relative Humidity Wind Chill (°F) Heat Index (°F) Pressure Precipitation (in)
Air Dwpt 6 hour altimeter (in) sea level (mb) 1 hr 3 hr 6 hr
Max. Min.
19 04:35 Calm 10.00 Fair CLR 57.2 57.2 100% 30.18 0.0
19 04:15 Calm 10.00 Fair CLR 56.1 56.1 100% 30.17 0.0
19 03:55 Calm 10.00 Fair CLR 57.2 57.2 100% 30.17 0.0
19 03:35 Calm 10.00 Fair CLR 56.8 56.8 100% 30.17 0.0
19 03:15 Calm 5.00 Fair CLR 56.8 56.8 100% 30.17 0.0
19 02:50 Calm 10.00 Fair CLR 57.2 57.2 100% 30.17 0.0
19 02:35 Calm 10.00 Fair CLR 57.6 57.6 100% 30.17 0.0
19 02:15 Calm 10.00 Fair CLR 58.3 58.3 100% 30.18 0.0
19 01:55 Calm 10.00 Fair CLR 57.6 57.6 100% 30.18 0.0
19 01:35 Calm 10.00 Fair CLR 58.6 58.6 100% 30.17 0.0
19 01:15 Calm 10.00 Fair CLR 58.3 58.3 100% 30.17 0.0
19 00:55 Calm 10.00 Fair CLR 59.2 59.2 76.3 58.1 100% 30.17 0.0
19 00:35 Calm 7.00 Fair CLR 58.5 58.5 100% 30.17 0.0
19 00:15 Calm 10.00 Fair CLR 60.3 60.3 100% 30.18 0.0
18 23:55 Calm 10.00 Fair CLR 60.1 60.1 100% 30.18 0.0
18 23:35 Calm 10.00 Fair CLR 61 61 100% 30.18 0.0
18 23:15 Calm 10.00 Fair CLR 61.7 61.5 99% 30.18 0.0
18 22:55 Calm 10.00 Fair CLR 62.4 62.4 100% 30.18 0.0
18 22:35 Calm 10.00 Fair CLR 62.6 62.2 99% 30.18 0.0
18 22:15 Calm 10.00 Fair CLR 64 61.3 91% 30.18 0.0
18 21:55 Calm 10.00 Fair CLR 64.9 62.1 90% 30.18 0.0
18 21:35 Calm 10.00 Fair CLR 64.8 62.2 92% 30.18 0.0
18 21:15 Calm 10.00 Fair CLR 66.6 62.6 87% 30.17 0.0
18 20:55 Calm 10.00 Fair CLR 67.3 63.5 88% 30.17 0.0
18 20:35 S 3 10.00 Fair CLR 70.2 62.4 77% 30.17 0.0
18 20:15 Calm 10.00 Fair CLR 72.5 59.2 63% 30.17 0.0
18 19:55 Calm 10.00 Fair CLR 74.1 57.9 57% 30.18 0.0
18 19:35 SW 3 10.00 Fair CLR 74.1 58.5 58% 30.18 0.0
18 19:15 W 3 10.00 Fair CLR 74.3 57.9 57% 30.18 0.0
18 18:55 SW 5 10.00 Fair CLR 76.3 55.9 78.4 73 49% 78 30.19 0.0
18 18:35 SW 5 10.00 Partly Cloudy SCT060 77 54.9 46% 78 30.19 0.0
18 18:15 Calm 10.00 Partly Cloudy SCT065 77.2 54 45% 79 30.2 0.0
18 17:55 SW 5 10.00 Partly Cloudy SCT060 77.5 54.1 44% 79 30.2 0.0
18 17:35 SW 8 10.00 Mostly Cloudy BKN060 77.9 53.6 43% 79 30.2 0.0
18 17:15 SW 7 10.00 Mostly Cloudy BKN060 78.1 54.9 45% 79 30.2 0.0
18 16:55 Calm 10.00 Fair CLR 77.9 52.9 42% 79 30.2 0.0
18 16:35 S 5 10.00 Partly Cloudy SCT060 78.4 54.5 44% 79 30.21 0.0
18 16:15 Calm 10.00 Partly Cloudy SCT060 77.5 53.1 43% 79 30.21 0.0
18 15:55 SW 5 10.00 Mostly Cloudy BKN060 76.5 54.1 46% 78 30.22 0.0
18 15:35 SW 5 10.00 Mostly Cloudy BKN060 75.2 54.3 48% 78 30.22 0.0
18 15:15 W 7 10.00 Partly Cloudy SCT060 77.5 54.1 44% 79 30.22 0.0
18 14:55 Calm 10.00 Partly Cloudy SCT060 76.8 54.1 46% 78 30.22 0.0
18 14:35 N 3 10.00 Partly Cloudy SCT060 77 54.7 46% 78 30.23 0.0
18 14:15 Calm 10.00 Partly Cloudy SCT060 76.1 52.9 45% 78 30.23 0.0
18 13:55 SW 5 10.00 Partly Cloudy SCT060 75.7 53.8 47% 78 30.24 0.0
18 13:35 Calm 10.00 Partly Cloudy SCT060 75.4 55 49% 78 30.24 0.0
18 13:15 Calm 10.00 Partly Cloudy SCT050 74.5 52.3 46% 30.24 0.0
18 12:55 Calm 10.00 Mostly Cloudy BKN050 73.4 52.2 75.2 57 47% 30.25 0.0
18 12:35 Calm 10.00 Mostly Cloudy BKN050 75 54.1 48% 78 30.25 0.0
18 12:15 W 5 10.00 Partly Cloudy SCT050 72.9 51.8 48% 30.25 0.0
18 11:55 NW 3 10.00 Mostly Cloudy BKN050 73.2 54.5 52% 30.25 0.0
18 11:35 Calm 10.00 Mostly Cloudy BKN047 72 55 55% 30.26 0.0
18 11:15 Calm 10.00 Partly Cloudy SCT044 72.7 54.5 53% 30.26 0.0
18 10:55 W 3 10.00 Partly Cloudy SCT044 72.3 55.8 56% 30.26 0.0
18 10:35 W 5 10.00 Fair CLR 71.6 55.9 58% 30.26 0.0
18 10:15 W 5 10.00 Fair CLR 71.1 55.6 58% 30.26 0.0
18 09:55 NW 3 10.00 Fair CLR 70 57.9 66% 30.26 0.0
18 09:35 Calm 10.00 Fair CLR 68.7 61 76% 30.26 0.0
18 09:15 Calm 10.00 Fair CLR 67.3 61 80% 30.27 0.0
18 08:55 Calm 10.00 Fair CLR 65.8 60.4 83% 30.28 0.0
18 08:35 Calm 10.00 Fair CLR 64.4 61.2 89% 30.28 0.0
18 08:15 Calm 10.00 Fair CLR 62.6 60.4 93% 30.28 0.0
18 07:55 Calm 10.00 Fair CLR 61 59.4 94% 30.28 0.0
18 07:35 Calm 10.00 Fair CLR 59.5 59 98% 30.27 0.0
18 07:15 Calm 10.00 Fair CLR 58.6 58.3 99% 30.26 0.0
18 06:55 Calm 10.00 Fair CLR 56.8 56.8 56.8 52.3 100% 30.26 0.0
18 06:35 Calm 10.00 Fair CLR 54.7 54.7 100% 30.26 0.0
18 06:15 Calm 10.00 Fair CLR 54.1 54.1 100% 30.26 0.0
18 05:55 Calm 10.00 Partly Cloudy SCT070 54.9 54.9 100% 30.26 0.0
18 05:35 Calm 10.00 Overcast OVC070 55.2 55.2 100% 30.26 0.0
18 05:15 Calm 10.00 Overcast OVC070 55.4 55.4 100% 30.26 0.0
18 04:55 Calm 10.00 Overcast OVC070 55.2 55.2 100% 30.26 0.0
18 04:35 Calm 10.00 Overcast OVC070 54.5 54.5 100% 30.25 0.0
18 04:15 Calm 10.00 Overcast OVC070 54.1 54.1 100% 30.25 0.0
18 03:55 Calm 7.00 Mostly Cloudy BKN070 52.3 52.3 100% 30.25 0.0
18 03:35 Calm 10.00 Partly Cloudy SCT001 SCT070 53.6 53.6 100% 30.24 0.0
18 03:15 Calm 10.00 Partly Cloudy SCT001 53.4 53.4 100% 30.24 0.0
18 02:55 Calm 10.00 Fair CLR 53.8 53.8 100% 30.24 0.0
18 02:35 Calm 7.00 Fair CLR 53.2 53.2 100% 30.24 0.0
18 02:10 Calm 10.00 Fair CLR 54 54 100% 30.24 0.0
18 01:55 Calm 5.00 Fair CLR 53.8 53.8 100% 30.24 0.0
18 01:35 Calm 10.00 Fair CLR 54.7 54.7 100% 30.23 0.0
18 01:15 Calm 10.00 Fair CLR 54.9 54.9 100% 30.23 0.0
18 00:55 Calm 10.00 Fair CLR 55.9 55.9 70.9 54.9 100% 30.23 0.0
18 00:35 Calm 10.00 Fair CLR 55.6 55.6 100% 30.23 0.0
18 00:15 Calm 10.00 Fair CLR 56.7 56.7 100% 30.23 0.0
17 23:55 Calm 10.00 Fair CLR 56.3 56.3 100% 30.22 0.0
17 23:35 Calm 10.00 Fair CLR 57.4 56.3 96% 30.21 0.0
17 23:15 Calm 10.00 Fair CLR 57.4 56.8 98% 30.21 0.0
17 22:55 Calm 10.00 Fair CLR 58.3 57.2 96% 30.21 0.0
17 22:35 Calm 10.00 Fair CLR 58.1 56.5 94% 30.21 0.0
17 22:15 Calm 10.00 Fair CLR 59 57.7 96% 30.21 0.0
17 21:55 S 3 10.00 Fair CLR 59.2 57.4 94% 30.2 0.0
17 21:35 Calm 10.00 Fair CLR 61.5 56.5 84% 30.2 0.0
17 21:15 Calm 10.00 Fair CLR 64.6 54 69% 30.19 0.0
17 20:55 Calm 10.00 Fair CLR 66 53.8 65% 30.19 0.0
17 20:35 Calm 10.00 Fair CLR 66.7 53.8 63% 30.19 0.0
17 20:15 N 3 10.00 Fair CLR 67.5 54.3 63% 30.19 0.0
17 19:55 N 5 10.00 Fair CLR 68.5 54.1 60% 30.19 0.0
17 19:35 N 5 10.00 Fair CLR 69.8 53.6 57% 30.19 0.0
17 19:15 Calm 10.00 Fair CLR 70.7 54.1 56% 30.19 0.0
17 18:55 N 6 10.00 Fair CLR 70.9 52.2 73.6 68.2 52% 30.19 0.0
17 18:35 N 5 10.00 Partly Cloudy SCT070 68.9 53.4 58% 30.19 0.0
17 18:15 N 5 10.00 Partly Cloudy SCT065 72.5 51.8 48% 30.19 0.0
17 17:55 N 10 10.00 Partly Cloudy SCT050 SCT065 72 52.2 50% 30.18 0.0
17 17:35 N 10 10.00 Partly Cloudy SCT065 72.5 52.5 50% 30.19 0.0
17 17:15 N 7 10.00 Partly Cloudy SCT060 72 52.5 51% 30.19 0.0
17 16:55 N 9 G 17 10.00 Mostly Cloudy BKN060 71.8 51.8 49% 30.19 0.0
17 16:35 N 9 10.00 Partly Cloudy SCT060 72.7 52.9 50% 30.19 0.0
17 16:15 NW 8 10.00 Partly Cloudy SCT050 72 51.8 49% 30.19 0.0
17 15:55 N 9 10.00 Mostly Cloudy BKN050 71.1 52.3 52% 30.19 0.0
17 15:35 N 7 10.00 Partly Cloudy SCT050 70.7 52.2 52% 30.19 0.0
17 15:15 NW 8 10.00 Mostly Cloudy SCT050 BKN055 71.8 52 50% 30.19 0.0
17 14:55 N 8 10.00 Mostly Cloudy BKN050 70.7 53.6 55% 30.19 0.0
17 14:35 N 13 G 17 10.00 Partly Cloudy SCT048 71.1 53.4 54% 30.18 0.0
17 14:15 N 8 10.00 Partly Cloudy SCT046 SCT050 70.7 53.2 54% 30.18 0.0
17 13:55 N 13 G 16 10.00 Partly Cloudy SCT046 SCT050 70.7 54.5 57% 30.18 0.0
17 13:35 N 13 G 16 10.00 Partly Cloudy SCT044 69.6 53.2 56% 30.18 0.0
17 13:15 N 7 10.00 Mostly Cloudy BKN044 69.8 53.2 56% 30.18 0.0
17 12:55 N 8 G 18 10.00 Mostly Cloudy BKN040 68.5 52.2 69.8 57.2 56% 30.18 0.0
17 12:35 N 14 10.00 Partly Cloudy SCT040 68.2 53.1 59% 30.18 0.0
17 12:15 N 10 G 17 10.00 Partly Cloudy SCT037 68.4 54.5 61% 30.18 0.0
17 11:55 N 12 G 16 10.00 Partly Cloudy SCT036 67.8 54.1 62% 30.18 0.0
17 11:35 N 13 G 17 10.00 Partly Cloudy SCT034 67.6 55.2 65% 30.18 0.0
17 11:15 N 13 G 18 10.00 Partly Cloudy SCT032 66.7 54 64% 30.18 0.0
17 10:55 N 8 G 18 10.00 Fair CLR 65.5 53.6 66% 30.18 0.0
17 10:35 NW 9 10.00 Fair CLR 65.3 54.7 69% 30.17 0.0
17 10:15 NW 10 10.00 Fair CLR 64.6 54.9 71% 30.17 0.0
17 09:55 NW 8 10.00 Fair CLR 64 55.4 74% 30.17 0.0
17 09:35 N 6 10.00 Fair CLR 63 55.6 77% 30.17 0.0
17 09:15 NW 7 10.00 Fair CLR 62.1 55.6 79% 30.17 0.0
17 08:55 N 6 10.00 Fair CLR 61 55.6 83% 30.17 0.0
17 08:35 N 8 10.00 Partly Cloudy SCT013 60.3 55.8 85% 30.16 0.0
17 08:15 NW 7 10.00 Partly Cloudy SCT013 59.4 55.8 88% 30.15 0.0
17 07:55 NW 5 10.00 Fair CLR 59 55.9 90% 30.14 0.0
17 07:35 N 6 10.00 Fair CLR 58.1 55.6 91% 30.13 0.0
17 07:15 N 7 10.00 Fair CLR 57.2 55.2 93% 30.12 0.0
17 06:55 N 6 10.00 Fair CLR 57 54.9 61.2 56.1 93% 30.11 0.0
17 06:35 N 6 10.00 Fair CLR 56.7 54.9 94% 30.11 0.0
17 06:15 N 7 10.00 Fair CLR 56.7 54.7 93% 30.1 0.0
17 05:55 N 7 10.00 Fair CLR 56.7 55 94% 30.08 0.0
17 05:35 NW 7 10.00 Fair CLR 56.5 55.4 96% 30.08 0.0
17 05:15 NW 3 10.00 Fair CLR 56.5 55.8 97% 30.07 0.0
17 04:55 Calm 10.00 Fair CLR 56.3 55.9 99% 30.06 0.0
17 04:35 NW 3 10.00 Fair CLR 56.7 56.1 98% 30.06 0.0
17 04:15 Calm 10.00 Fair CLR 57.6 57 98% 30.05 0.0
17 03:55 Calm 10.00 Fair CLR 58.1 57.2 97% 30.05 0.0
17 03:35 Calm 10.00 Fair CLR 57.9 57.7 99% 30.04 0.0
17 03:15 NW 3 10.00 Partly Cloudy SCT060 58.6 57.2 95% 30.04 0.0
17 02:55 N 3 10.00 Partly Cloudy SCT060 59.9 57.4 91% 30.04 0.0
17 02:35 NW 5 10.00 Partly Cloudy SCT060 59.9 57.6 92% 30.04 0.0
17 02:15 Calm 10.00 Mostly Cloudy BKN060 60.6 59 94% 30.03 0.0
17 01:55 NW 3 10.00 Mostly Cloudy BKN050 BKN060 BKN070 60.8 59.2 94% 30.02 0.0
17 01:35 Calm 10.00 Overcast BKN060 OVC075 61.2 59.9 96% 30.02 0.0
17 01:15 Calm 10.00 Mostly Cloudy BKN060 59.9 59.7 99% 30.02 0.0
17 00:55 Calm 10.00 Fair CLR 61.5 59.4 74.7 61.5 93% 30.02 0.0 0.01
17 00:35 Calm 10.00 Fair CLR 62.6 59.5 90% 30.01 0.0
17 00:15 NW 3 10.00 Fair CLR 62.6 59.5 90% 30.01 0.0
16 23:55 Calm 10.00 Partly Cloudy SCT060 62.8 60.3 92% 30.01 0.0
16 23:35 Calm 10.00 Mostly Cloudy SCT050 BKN060 63.9 60.6 89% 30 0.0
16 23:15 Calm 10.00 Mostly Cloudy BKN050 BKN060 63 61.5 95% 29.99 0.0
16 22:55 NW 3 10.00 Mostly Cloudy SCT048 BKN060 BKN075 63 61.5 95% 29.99 0.0
16 22:35 NW 5 10.00 Partly Cloudy SCT075 62.8 61.2 94% 29.98 0.0
16 22:15 W 3 10.00 Mostly Cloudy SCT060 BKN085 63.3 60.8 92% 29.98 0.0
16 21:55 Calm 10.00 Mostly Cloudy SCT060 BKN085 BKN100 64.4 62.2 93% 29.98 0.0 0.01
16 21:35 Calm 10.00 Mostly Cloudy SCT060 SCT070 BKN095 64.2 62.1 93% 29.97 0.0
16 21:15 Calm 10.00 Mostly Cloudy BKN060 BKN095 BKN120 64.6 63.3 96% 29.97 0.0
16 20:55 Calm 10.00 Partly Cloudy SCT070 SCT080 SCT120 65.3 63 92% 29.96 0.0 0.01
16 20:35 Calm 10.00 Partly Cloudy SCT065 SCT085 SCT120 66.4 61.2 83% 29.95 0.0 0.01
16 20:15 N 5 10.00 Mostly Cloudy SCT048 SCT075 BKN080 66.6 60.6 81% 29.95 0.0 0.01
16 19:55 N 10 10.00 Overcast SCT070 BKN075 OVC090 70.5 58.1 65% 29.95 0.0
16 19:35 N 15 G 21 10.00 Overcast SCT060 BKN080 OVC090 73.4 56.1 55% 29.94 0.0
16 19:15 NW 5 10.00 Overcast OVC090 73.8 57.7 57% 29.94 0.0
16 18:55 W 5 10.00 Mostly Cloudy SCT055 BKN100 BKN110 74.5 58.8 78.6 73.6 58% 29.94 0.0
16 18:35 W 6 10.00 Mostly Cloudy SCT055 BKN110 75.9 56.3 51% 78 29.94 0.0
16 18:15 W 7 10.00 Mostly Cloudy BKN110 77.2 56.7 49% 79 29.94 0.0
16 17:55 W 12 10.00 Overcast SCT060 SCT080 OVC100 77.7 57 49% 79 29.94 0.0
16 17:35 W 8 10.00 Mostly Cloudy BKN090 78.1 55.9 47% 79 29.94 0.0
16 17:15 NW 5 10.00 Fair CLR 78.1 55.8 46% 79 29.94 0.0
16 16:55 NW 8 10.00 Fair CLR 78.1 55.6 46% 79 29.94 0.0
16 16:35 NW 10 10.00 Fair CLR 78.1 54.7 45% 79 29.95 0.0
16 16:15 NW 9 10.00 Fair CLR 78.1 55.4 46% 79 29.94 0.0
16 15:55 W 9 10.00 Fair CLR 78.1 56.1 47% 79 29.94 0.0
16 15:35 N 12 G 17 10.00 Fair CLR 77.9 55 45% 79 29.94 0.0
16 15:15 NW 8 G 16 10.00 Fair CLR 78.1 57.6 49% 79 29.93 0.0
16 14:55 NW 12 G 18 10.00 Fair CLR 77.9 58.1 51% 79 29.93 0.0
16 14:35 NW 13 G 18 10.00 Fair CLR 76.6 54.9 47% 78 29.92 0.0
16 14:15 NW 9 10.00 Fair CLR 76.8 53.4 44% 78 29.93 0.0
16 13:55 NW 13 G 18 10.00 Partly Cloudy SCT044 76.5 53.2 45% 78 29.92 0.0
16 13:35 NW 10 G 18 10.00 Partly Cloudy SCT044 75.4 57.6 54% 78 29.92 0.0
16 13:15 NW 6 10.00 Partly Cloudy SCT085 74.5 63.1 68% 29.92 0.0
16 12:55 NW 6 10.00 Mostly Cloudy SCT065 BKN085 73.4 65.3 75.4 63.1 76% 29.93 0.0 0.03 0.03
16 12:35 N 3 10.00 Mostly Cloudy SCT039 SCT050 BKN070 70.7 64.8 82% 29.93 0.0 0.03
16 12:15 N 7 4.00 Overcast SCT035 BKN041 OVC070 70 63.1 79% 29.93 0.0 0.03
16 11:55 W 7 10.00 Overcast SCT036 BKN060 OVC080 73.4 61.3 66% 29.92 0.0
16 11:35 NW 6 10.00 Mostly Cloudy SCT044 BKN060 BKN075 74.8 62.8 66% 29.92 0.0
16 11:15 NW 5 10.00 Mostly Cloudy SCT033 BKN044 BKN050 73.8 61.5 66% 29.92 0.0
16 10:55 NW 7 10.00 Partly Cloudy SCT031 SCT042 73 62.1 69% 29.92 0.0
16 10:35 W 6 10.00 Partly Cloudy SCT033 73.8 62.8 69% 29.92 0.0
16 10:15 NW 6 10.00 Fair CLR 72.7 61.9 69% 29.92 0.0
16 09:55 NW 7 10.00 Fair CLR 72 62.4 72% 29.92 0.0
16 09:35 NW 5 10.00 Fair CLR 71.4 63 75% 29.91 0.0
16 09:15 Calm 10.00 Fair CLR 70 62.6 78% 29.91 0.0
16 08:55 NW 3 10.00 Fair CLR 68.7 61.9 79% 29.91 0.0
16 08:35 Calm 10.00 Fair CLR 67.8 62.4 83% 29.91 0.0
16 08:15 N 3 10.00 Fair CLR 66.6 62.1 86% 29.91 0.0
16 07:55 N 5 10.00 Fair CLR 65.8 63.1 91% 29.9 0.0
16 07:35 Calm 10.00 Fair CLR 64.6 62.6 93% 29.89 0.0
16 07:15 NW 3 10.00 Fair CLR 63.9 62.4 95% 29.88 0.0
16 06:55 Calm 10.00 Fair CLR 63.1 63 68.5 61.3 99% 29.88 0.0
16 06:35 Calm 10.00 Fair CLR 62.2 61.9 99% 29.87 0.0
16 06:15 Calm 10.00 Fair CLR 61.7 61.7 100% 29.86 0.0
16 05:55 Calm 10.00 Fair CLR 61.7 61.5 99% 29.86 0.0
16 05:35 NW 3 10.00 Fair CLR 61.7 61.3 99% 29.86 0.0
16 05:15 Calm 10.00 Partly Cloudy SCT041 62.4 61.7 98% 29.85 0.0
16 04:55 Calm 10.00 Fair CLR 62.6 61.7 97% 29.85 0.0
Date Time (cdt) Wind (mph) Vis. (mi.) Weather Sky Cond. Air Dwpt Max. Min. Relative Humidity Wind Chill (°F) Heat Index (°F) altimeter (in) sea level (mb) 1 hr 3 hr 6 hr
6 hour
Temperature (ºF) Pressure Precipitation (in)